Weather History for Alexandria, MN

Change the Weather History Date:

Saturday, February 22, 2014

  Actual Average Record
Temperature  
Mean Temperature 4 °F -  
Max Temperature 9 °F 28 °F 54 °F (1961)
Min Temperature -2 °F 11 °F -23 °F (1957)
Degree Days  
Heating Degree Days 62    
Moisture  
Dew Point -3 °F    
Average Humidity 73    
Maximum Humidity 79    
Minimum Humidity 67    
Precipitation  
Precipitation 0.00 in - - ()
Sea Level Pressure  
Sea Level Pressure 30.05 in    
Wind  
Wind Speed 16 mph (WNW)    
Max Wind Speed 24 mph    
Max Gust Speed 28 mph    
Visibility 10 miles    
Events      
Averages and records for this station are not official NWS values.
T = Trace of Precipitation, MM = Missing Value Source: NWS Daily Summary

Daily Weather History Graph

Daily Weather History Graph

Search for Another Location

Airport:

Trip Planner

Search our weather history database for the weather conditions in past years. The results will help you decide how hot, cold, wet, or windy it might be!

Date:

Astronomy

Feb. 22, 2014 Rise Set
Actual Time 7:12 AM CST 5:58 PM CST
Civil Twilight 6:42 AM CST 6:28 PM CST
Nautical Twilight 6:07 AM CST 7:03 PM CST
Astronomical Twilight 5:33 AM CST 7:37 PM CST
Moon 1:16 AM CST 11:01 AM CST
Length of Visible Light 11h 46m
Length of Day
10h 45m
Waning Gibbous, 50% of the Moon is Illuminated
Feb 22
Waning Gibbous
Mar 1
New
Mar 8
First Quarter
Mar 16
Full
Mar 23
Last Quarter

Hourly Weather History & Observations

Time (CST) Temp. Windchill Dew Point Humidity Pressure Visibility Wind Dir Wind Speed Gust Speed Precip Events Conditions
12:53 AM 3.0 °F -15.5 °F -2.9 °F 76% 29.89 in 10.0 mi WNW 15.0 mph - N/A   Clear
1:53 AM 1.9 °F -16.9 °F -4.0 °F 76% 29.90 in 10.0 mi WNW 15.0 mph - N/A   Clear
2:53 AM 1.0 °F -18.0 °F -4.0 °F 79% 29.91 in 10.0 mi WNW 15.0 mph - N/A   Clear
3:53 AM -0.0 °F -18.7 °F -5.1 °F 79% 29.93 in 10.0 mi WNW 13.8 mph - N/A   Clear
4:53 AM -0.0 °F -18.7 °F -6.0 °F 76% 29.94 in 10.0 mi WNW 13.8 mph - N/A   Clear
5:53 AM -0.9 °F -20.6 °F -6.0 °F 79% 29.97 in 10.0 mi WNW 15.0 mph - N/A   Clear
6:53 AM -2.0 °F -21.9 °F -7.1 °F 79% 29.99 in 10.0 mi WNW 15.0 mph - N/A   Clear
7:53 AM -0.9 °F -20.6 °F -7.1 °F 75% 30.01 in 10.0 mi WNW 15.0 mph - N/A   Clear
8:53 AM -0.0 °F -18.7 °F -6.0 °F 76% 30.02 in 10.0 mi WNW 13.8 mph - N/A   Clear
9:53 AM 1.0 °F -18.0 °F -5.1 °F 75% 30.04 in 10.0 mi WNW 15.0 mph - N/A   Clear
10:53 AM 3.0 °F -14.8 °F -4.0 °F 73% 30.05 in 10.0 mi WNW 13.8 mph - N/A   Clear
11:53 AM 5.0 °F -13.6 °F -2.0 °F 73% 30.06 in 10.0 mi WNW 16.1 mph - N/A   Clear
12:53 PM 7.0 °F -11.0 °F -0.9 °F 70% 30.06 in 10.0 mi WNW 16.1 mph - N/A   Clear
1:53 PM 8.1 °F -13.0 °F -0.9 °F 67% 30.07 in 10.0 mi WNW 24.2 mph 27.6 mph N/A   Clear
2:53 PM 8.1 °F -11.2 °F -0.0 °F 70% 30.08 in 10.0 mi WNW 19.6 mph - N/A   Clear
3:53 PM 9.0 °F -10.5 °F -0.0 °F 67% 30.09 in 10.0 mi WNW 20.7 mph - N/A   Clear
4:53 PM 9.0 °F -10.0 °F 1.0 °F 70% 30.10 in 10.0 mi WNW 19.6 mph 25.3 mph N/A   Clear
5:53 PM 9.0 °F -7.9 °F 1.0 °F 70% 30.12 in 10.0 mi WNW 15.0 mph - N/A   Clear
6:53 PM 8.1 °F -9.6 °F -0.0 °F 70% 30.14 in 10.0 mi WNW 16.1 mph - N/A   Clear
7:53 PM 7.0 °F -12.6 °F -0.0 °F 73% 30.15 in 10.0 mi WNW 19.6 mph - N/A   Clear
8:53 PM 6.1 °F -11.6 °F -2.0 °F 69% 30.17 in 10.0 mi NW 15.0 mph - N/A   Clear
9:53 PM 5.0 °F -13.6 °F -2.9 °F 70% 30.20 in 10.0 mi NW 16.1 mph - N/A   Clear
10:53 PM 3.0 °F -14.8 °F -2.9 °F 76% 30.21 in 10.0 mi WNW 13.8 mph - N/A   Clear
11:53 PM 1.9 °F -15.5 °F -4.0 °F 76% 30.22 in 10.0 mi WNW 12.7 mph - N/A   Clear